Location: Campbell Hill
(37.9301°N, 89.5490°W)
Time: 10:14:29
(UTC+00:00)

Cosmos 1725 Rocket - Pass Details

Date: 07 November 2025
Orbit: 962 x 989 km, 82.9° (Epoch: 07 December)

Event Time Altitude Azimuth Distance (km) Brightness Sun altitude
Rises 23:14:06 0° 168° (SSE) 3,646 7.1 -4.8°
Reaches altitude 10° 23:16:40 10° 163° (SSE) 2,707 6.4 -5.3°
Maximum altitude 23:22:35 49° 90° (E) 1,248 4.2 -6.4°
Drops below altitude 10° 23:28:34 10° 18° (NNE) 2,741 6.0 -7.5°
Sets 23:31:11 0° 13° (NNE) 3,697 6.7 -8.0°
